Flag for Germany Weather past 2 weeks in Offenburg, Baden-Württemberg, Germany

Now
70 °F

Sunny.


Feels Like: 70 °F
Forecast: 58 / 76 °F
Wind: 2 mph from East

Location: Lahr - CAN-AFB

Current Time: Sep 17, 2014 at 8:38:27 PM

Latest Report: Sep 17, 2014 at 7:50 PM


Visibility: 10 mi

Pressure: 29.83 "Hg

Humidity: 78%

Dew point: 63 °F

Location of OffenburgLocation

Historic Weather in Offenburg — Graph

°F

Offenburg temperature yesterday

Maximum temperature yesterday: 75 °F (at 3:50 PM)
Minimum temperature yesterday: 55 °F (at 7:50 AM)
Average temperature yesterday: 67 °F

Past Weeks' High & Low Weather Summary

 TemperatureHumidityPressure
High79 °F (Sep 6, 1:50 PM)100% (Sep 5, 7:50 AM)30.12 "Hg (Sep 5, 7:50 AM)
Low52 °F (Sep 11, 7:50 AM)48% (Sep 8, 4:20 PM)29.83 "Hg (Sep 17, 3:50 PM)
Average66 °F77%30.00 "Hg
* Reported Sep 2 7:20 PM — Sep 17 7:20 PM, Offenburg, Weather by CustomWeather, © 2014

Note: Actual official high and low records may vary slightly from our data, if they occured in-between our weather recording intervals... More about our weather records

Advertising

Offenburg weather history for previous 24 hours

 ConditionsComfort  
Time TempWeatherWind HumidityBarometerVisibility
7:20 PM
Sep 17
70 °FSunny.3 mph78%29.83 "Hg10 mi
6:50 PM72 °FSunny.3 mph73%29.83 "Hg10 mi
6:20 PM73 °FPassing clouds.3 mph74%29.83 "HgN/A
5:50 PM75 °FPassing clouds.5 mph65%29.83 "HgN/A
5:20 PM75 °FPassing clouds.5 mph65%29.83 "HgN/A
4:50 PM73 °FPassing clouds.6 mph69%29.83 "HgN/A
3:50 PM75 °FPassing clouds.7 mph65%29.83 "HgN/A
3:20 PM75 °FPassing clouds.7 mph65%29.86 "HgN/A
2:50 PM73 °FPassing clouds.7 mph69%29.86 "HgN/A
2:20 PM72 °FPassing clouds.6 mph73%29.86 "HgN/A
1:50 PM70 °FPassing clouds.3 mph73%29.89 "HgN/A
1:20 PM66 °FPassing clouds.5 mph83%29.89 "Hg5 mi
12:50 PM68 °FScattered clouds.2 mph78%29.89 "Hg4 mi
12:20 PM63 °FFog.3 mph94%29.92 "Hg2 mi
11:50 AM63 °FFog.2 mph100%29.92 "Hg1 mi
11:20 AM61 °FFog.2 mph100%29.92 "Hg1 mi
10:58 AM59 °FFog.2 mph100%29.92 "Hg1 mi
10:50 AM57 °FFog.2 mph100%29.92 "Hg0 mi
10:20 AM57 °FFog.1 mph100%29.92 "Hg0 mi
9:50 AM57 °FFog.1 mph100%29.92 "Hg0 mi
9:20 AM57 °FFog.1 mph100%29.92 "Hg1 mi
8:53 AM57 °FFog.3 mph100%29.92 "Hg0 mi
8:50 AM55 °FFog.2 mph100%29.92 "HgN/A
8:20 AM55 °FFog.2 mph100%29.92 "Hg100 mi
7:50 AM54 °FFog.1 mph100%29.92 "HgN/A
10:20 PM
Sep 16
63 °FClear.1 mph94%29.92 "Hg10 mi
Weather by CustomWeather, © 2014

See weather overviewHow to use our weather pages